Weather History for Lakeview AWS, OR

Change the Weather History Date:

Friday, May 9, 2014

  Actual Average Record
Temperature  
Mean Temperature 47 °F -  
Max Temperature 59 °F 62 °F 81 °F (1969)
Min Temperature 35 °F 36 °F 20 °F (1983)
Degree Days  
Heating Degree Days 18    
Moisture  
Dew Point 31 °F    
Average Humidity 59    
Maximum Humidity 87    
Minimum Humidity 29    
Precipitation  
Precipitation 0.00 in - - ()
Sea Level Pressure  
Sea Level Pressure 30.00 in    
Wind  
Wind Speed 16 mph (WSW)    
Max Wind Speed 28 mph    
Max Gust Speed 34 mph    
Visibility 10 miles    
Events      
Averages and records for this station are not official NWS values.
T = Trace of Precipitation, MM = Missing Value Source: NWS Daily Summary

Daily Weather History Graph

Daily Weather History Graph

Search for Another Location

Airport:

Trip Planner

Search our weather history database for the weather conditions in past years. The results will help you decide how hot, cold, wet, or windy it might be!

Date:

Astronomy

May. 09, 2014 Rise Set
Actual Time 5:47 AM PDT 8:09 PM PDT
Civil Twilight 5:15 AM PDT 8:41 PM PDT
Nautical Twilight 4:36 AM PDT 9:20 PM PDT
Astronomical Twilight 3:53 AM PDT 10:03 PM PDT
Moon 3:06 PM PDT (5/9) 2:57 AM PDT (5/9)
Length of Visible Light 15h 25m
Length of Day
14h 22m
Waxing Gibbous, 74% of the Moon is Illuminated
May 9
Waxing Gibbous
May 14
Full
May 21
Last Quarter
May 28
New
Jun 5
First Quarter

Hourly Weather History & Observations

Time (PDT) Temp. Windchill Dew Point Humidity Pressure Visibility Wind Dir Wind Speed Gust Speed Precip Events Conditions
12:15 AM 44.6 °F 39.7 °F 39.2 °F 81% 29.93 in 10.0 mi SSW 9.2 mph - N/A   Overcast
12:35 AM 44.6 °F 36.6 °F 39.2 °F 81% 29.93 in 10.0 mi SW 19.6 mph - N/A   Mostly Cloudy
12:55 AM 44.6 °F 36.6 °F 37.4 °F 76% 29.93 in 10.0 mi SW 19.6 mph 24.2 mph N/A   Overcast
1:15 AM 42.8 °F 35.8 °F 37.4 °F 81% 29.94 in 9.0 mi WSW 13.8 mph - N/A   Mostly Cloudy
1:35 AM 42.8 °F 34.3 °F 37.4 °F 81% 29.94 in 10.0 mi SW 19.6 mph 23.0 mph N/A   Mostly Cloudy
2:15 AM 42.8 °F 35.1 °F 35.6 °F 76% 29.94 in 10.0 mi SW 16.1 mph 25.3 mph N/A   Mostly Cloudy
2:35 AM 42.8 °F 35.4 °F 37.4 °F 81% 29.95 in 10.0 mi WSW 15.0 mph - N/A   Mostly Cloudy
2:55 AM 42.8 °F 35.8 °F 35.6 °F 76% 29.95 in 10.0 mi WSW 13.8 mph 21.9 mph N/A   Overcast
3:15 AM 42.8 °F 34.5 °F 33.8 °F 70% 29.95 in 10.0 mi SW 18.4 mph 24.2 mph N/A   Mostly Cloudy
3:35 AM 42.8 °F 35.1 °F 33.8 °F 70% 29.96 in 10.0 mi WSW 16.1 mph 23.0 mph N/A   Partly Cloudy
3:55 AM 42.8 °F 35.1 °F 33.8 °F 70% 29.97 in 10.0 mi WSW 16.1 mph 25.3 mph N/A   Scattered Clouds
4:15 AM 41.0 °F 33.5 °F 35.6 °F 81% 29.97 in 10.0 mi WSW 13.8 mph - N/A   Overcast
4:35 AM 41.0 °F 32.8 °F 37.4 °F 87% 29.98 in 10.0 mi WSW 16.1 mph - N/A   Overcast
4:55 AM 41.0 °F 33.5 °F 35.6 °F 81% 29.98 in 10.0 mi WSW 13.8 mph 19.6 mph N/A   Overcast
5:15 AM 41.0 °F 33.1 °F 33.8 °F 76% 29.99 in 10.0 mi WSW 15.0 mph - N/A   Overcast
5:35 AM 39.2 °F 30.2 °F 33.8 °F 81% 29.98 in 10.0 mi WSW 17.3 mph - N/A   Mostly Cloudy
5:55 AM 39.2 °F 29.3 °F 33.8 °F 81% 29.98 in 10.0 mi WSW 20.7 mph - N/A   Clear
6:15 AM 39.2 °F 29.0 °F 33.8 °F 81% 29.98 in 10.0 mi WSW 21.9 mph - N/A   Clear
6:35 AM 39.2 °F 29.6 °F 33.8 °F 81% 29.99 in 10.0 mi WSW 19.6 mph 27.6 mph N/A   Clear
6:55 AM 41.0 °F 31.6 °F 32.0 °F 70% 30.00 in 10.0 mi WSW 20.7 mph 34.5 mph N/A   Partly Cloudy
7:15 AM 39.2 °F 29.6 °F 33.8 °F 81% 30.01 in 10.0 mi West 19.6 mph 28.8 mph N/A   Clear
7:35 AM 41.0 °F 32.5 °F 32.0 °F 70% 30.02 in 10.0 mi WSW 17.3 mph 20.7 mph N/A   Clear
7:55 AM 42.8 °F 33.8 °F 33.8 °F 70% 30.02 in 10.0 mi WSW 21.9 mph 26.5 mph N/A   Scattered Clouds
8:15 AM 42.8 °F 33.8 °F 33.8 °F 70% 30.02 in 10.0 mi WSW 21.9 mph 26.5 mph N/A   Clear
8:35 AM 42.8 °F 34.8 °F 33.8 °F 70% 30.02 in 10.0 mi WSW 17.3 mph 26.5 mph N/A   Clear
8:55 AM 44.6 °F 38.1 °F 33.8 °F 66% 30.03 in 10.0 mi WSW 13.8 mph - N/A   Clear
9:15 AM 44.6 °F 38.8 °F 33.8 °F 66% 30.04 in 10.0 mi WSW 11.5 mph - N/A   Mostly Cloudy
9:35 AM 44.6 °F 38.1 °F 33.8 °F 66% 30.03 in 10.0 mi WSW 13.8 mph - N/A   Overcast
9:55 AM 46.4 °F 39.8 °F 33.8 °F 62% 30.04 in 10.0 mi West 16.1 mph 20.7 mph N/A   Overcast
10:15 AM 46.4 °F 40.1 °F 35.6 °F 66% 30.04 in 10.0 mi West 15.0 mph - N/A   Overcast
10:35 AM 44.6 °F 39.7 °F 35.6 °F 71% 30.05 in 9.0 mi SW 9.2 mph - N/A   Overcast
10:55 AM 48.2 °F - 33.8 °F 58% 30.05 in 10.0 mi SW 16.1 mph 24.2 mph N/A   Mostly Cloudy
11:15 AM 48.2 °F - 32.0 °F 54% 30.05 in 10.0 mi WSW 18.4 mph 24.2 mph N/A   Overcast
11:35 AM 50.0 °F - 30.2 °F 47% 30.04 in 10.0 mi WSW 19.6 mph 24.2 mph N/A   Overcast
11:55 AM 51.8 °F - 30.2 °F 44% 30.04 in 10.0 mi WSW 18.4 mph 26.5 mph N/A   Scattered Clouds
12:15 PM 53.6 °F - 30.2 °F 41% 30.03 in 10.0 mi SW 17.3 mph 23.0 mph N/A   Partly Cloudy
12:35 PM 53.6 °F - 30.2 °F 41% 30.02 in 10.0 mi SW 16.1 mph - N/A   Partly Cloudy
12:55 PM 55.4 °F - 30.2 °F 38% 30.02 in 10.0 mi WSW 18.4 mph 26.5 mph N/A   Partly Cloudy
1:15 PM 55.4 °F - 28.4 °F 36% 30.01 in 10.0 mi WSW 19.6 mph 27.6 mph N/A   Scattered Clouds
1:35 PM 55.4 °F - 26.6 °F 33% 30.01 in 10.0 mi WSW 19.6 mph 29.9 mph N/A   Partly Cloudy
1:55 PM 55.4 °F - 26.6 °F 33% 30.01 in 10.0 mi WSW 23.0 mph 32.2 mph N/A   Clear
2:15 PM 53.6 °F - 26.6 °F 35% 30.01 in 10.0 mi WSW 18.4 mph 27.6 mph N/A   Mostly Cloudy
2:35 PM 53.6 °F - 24.8 °F 33% 30.01 in 10.0 mi West 19.6 mph 27.6 mph N/A   Mostly Cloudy
2:55 PM 55.4 °F - 24.8 °F 31% 30.00 in 10.0 mi West 21.9 mph 29.9 mph N/A   Overcast
3:15 PM 57.2 °F - 26.6 °F 31% 29.99 in 10.0 mi SW 18.4 mph 26.5 mph N/A   Mostly Cloudy
3:35 PM 59.0 °F - 26.6 °F 29% 29.99 in 10.0 mi WSW 18.4 mph 32.2 mph N/A   Partly Cloudy
3:55 PM 57.2 °F - 26.6 °F 31% 29.98 in 10.0 mi West 18.4 mph 28.8 mph N/A   Partly Cloudy
4:15 PM 57.2 °F - 26.6 °F 31% 29.98 in 10.0 mi WSW 27.6 mph 33.4 mph N/A   Partly Cloudy
4:35 PM 55.4 °F - 24.8 °F 31% 29.98 in 10.0 mi West 21.9 mph 32.2 mph N/A   Scattered Clouds
4:55 PM 55.4 °F - 24.8 °F 31% 29.98 in 10.0 mi WSW 24.2 mph 34.5 mph N/A   Mostly Cloudy
5:15 PM 55.4 °F - 24.8 °F 31% 29.98 in 10.0 mi WSW 21.9 mph 33.4 mph N/A   Partly Cloudy
5:35 PM 55.4 °F - 24.8 °F 31% 29.98 in 10.0 mi West 18.4 mph 29.9 mph N/A   Scattered Clouds
5:55 PM 55.4 °F - 28.4 °F 36% 29.98 in 10.0 mi West 24.2 mph 31.1 mph N/A   Scattered Clouds
6:15 PM 51.8 °F - 28.4 °F 41% 29.99 in 10.0 mi West 20.7 mph 24.2 mph N/A   Scattered Clouds
6:35 PM 51.8 °F - 30.2 °F 44% 29.99 in 10.0 mi West 19.6 mph - N/A   Partly Cloudy
6:55 PM 48.2 °F - 30.2 °F 50% 30.00 in 10.0 mi West 17.3 mph 27.6 mph N/A   Scattered Clouds
7:15 PM 48.2 °F - 30.2 °F 50% 30.01 in 10.0 mi West 20.7 mph 25.3 mph N/A   Mostly Cloudy
7:35 PM 46.4 °F 40.1 °F 28.4 °F 50% 30.01 in 10.0 mi West 15.0 mph 25.3 mph N/A   Scattered Clouds
7:55 PM 44.6 °F 36.4 °F 28.4 °F 53% 30.01 in 10.0 mi West 20.7 mph 25.3 mph N/A   Clear
8:15 PM 44.6 °F 36.6 °F 26.6 °F 49% 30.01 in 10.0 mi West 19.6 mph 27.6 mph N/A   Clear
8:35 PM 42.8 °F 35.8 °F 26.6 °F 53% 30.02 in 10.0 mi West 13.8 mph - N/A   Clear
8:55 PM 42.8 °F 36.2 °F 28.4 °F 57% 30.03 in 10.0 mi WNW 12.7 mph 19.6 mph N/A   Clear
9:15 PM 41.0 °F 34.3 °F 28.4 °F 61% 30.04 in 10.0 mi WNW 11.5 mph - N/A   Clear
9:35 PM 39.2 °F 37.0 °F 26.6 °F 61% 30.05 in 10.0 mi WNW 3.5 mph - N/A   Clear
9:55 PM 39.2 °F 32.0 °F 28.4 °F 65% 30.06 in 10.0 mi WNW 11.5 mph - N/A   Clear
10:15 PM 37.4 °F 31.4 °F 28.4 °F 70% 30.07 in 10.0 mi NW 8.1 mph - N/A   Mostly Cloudy
10:35 PM 37.4 °F 34.9 °F 28.4 °F 70% 30.06 in 10.0 mi WNW 3.5 mph - N/A   Scattered Clouds
10:55 PM 35.6 °F 29.2 °F 28.4 °F 75% 30.06 in 10.0 mi SW 8.1 mph - N/A   Scattered Clouds
11:15 PM 37.4 °F 29.3 °F 28.4 °F 70% 30.06 in 10.0 mi WSW 12.7 mph - N/A   Scattered Clouds
11:35 PM 37.4 °F 28.2 °F 28.4 °F 70% 30.06 in 10.0 mi WSW 16.1 mph 21.9 mph N/A   Partly Cloudy
11:55 PM 37.4 °F 28.2 °F 26.6 °F 65% 30.06 in 10.0 mi WSW 16.1 mph 21.9 mph N/A   Clear